Time,TemperatureF,DewpointF,PressureIn,WindDirection,WindDirectionDegrees,WindSpeedMPH,WindSpeedGustMPH,Humidity,HourlyPrecipIn,Conditions,Clouds,dailyrainin,SoftwareType,DateUTC
2013-03-17 00:00:00,60.5,56.0,30.14,South,172,0.0,0.0,85,0.00,CLR,OVC,0.00,WeatherDisplay:10.37,2013-03-17 04:00:00,
2013-03-17 00:05:00,60.5,56.0,30.14,South,172,0.0,0.0,85,0.00,CLR,OVC,0.00,WeatherDisplay:10.37,2013-03-17 04:05:00,
2013-03-17 00:10:00,60.3,55.8,30.14,South,172,0.0,0.0,85,0.00,CLR,OVC,0.00,WeatherDisplay:10.37,2013-03-17 04:10:00,
2013-03-17 00:15:00,60.3,55.8,30.14,South,172,0.0,0.0,85,0.00,CLR,OVC,0.00,WeatherDisplay:10.37,2013-03-17 04:15:00,
2013-03-17 00:20:00,60.1,55.6,30.14,SSW,196,1.5,2.3,85,0.00,CLR,OVC,0.00,WeatherDisplay:10.37,2013-03-17 04:20:00,
2013-03-17 00:25:00,60.0,55.5,30.14,South,181,0.8,1.1,85,0.00,CLR,OVC,0.00,WeatherDisplay:10.37,2013-03-17 04:25:00,
2013-03-17 00:30:00,59.9,55.4,30.14,SSE,158,0.0,0.0,85,0.00,CLR,OVC,0.00,WeatherDisplay:10.37,2013-03-17 04:30:00,
2013-03-17 00:35:00,59.8,55.3,30.13,SSE,158,0.0,0.0,85,0.00,CLR,OVC,0.00,WeatherDisplay:10.37,2013-03-17 04:35:00,
2013-03-17 00:40:00,59.7,55.2,30.13,SSE,158,0.0,0.0,85,0.00,CLR,OVC,0.00,WeatherDisplay:10.37,2013-03-17 04:40:00,
2013-03-17 00:45:00,59.6,55.4,30.13,SSE,158,0.0,0.0,86,0.00,CLR,OVC,0.00,WeatherDisplay:10.37,2013-03-17 04:45:00,
2013-03-17 00:50:00,59.5,55.3,30.13,SSE,158,0.0,0.0,86,0.00,CLR,OVC,0.00,WeatherDisplay:10.37,2013-03-17 04:50:00,
2013-03-17 00:55:00,59.5,55.3,30.13,SSE,158,0.0,0.0,86,0.00,CLR,OVC,0.00,WeatherDisplay:10.37,2013-03-17 04:55:00,
2013-03-17 01:00:00,59.4,55.2,30.13,SSE,158,0.0,0.0,86,0.00,CLR,OVC,0.00,WeatherDisplay:10.37,2013-03-17 05:00:00,
2013-03-17 01:05:00,59.4,54.9,30.13,SSE,158,0.0,0.0,85,0.00,CLR,OVC,0.00,WeatherDisplay:10.37,2013-03-17 05:05:00,
2013-03-17 01:10:00,59.3,54.8,30.13,SSE,158,0.0,0.0,85,0.00,CLR,OVC,0.00,WeatherDisplay:10.37,2013-03-17 05:10:00,
2013-03-17 01:15:00,59.2,54.7,30.13,SSE,158,0.0,0.0,85,0.00,CLR,OVC,0.00,WeatherDisplay:10.37,2013-03-17 05:15:00,
2013-03-17 01:20:00,59.2,55.0,30.13,SSE,158,0.0,0.0,86,0.00,CLR,OVC,0.00,WeatherDisplay:10.37,2013-03-17 05:20:00,
2013-03-17 01:25:00,59.0,54.8,30.12,SSE,158,0.0,0.0,86,0.00,CLR,OVC,0.00,WeatherDisplay:10.37,2013-03-17 05:25:00,
2013-03-17 01:30:00,58.9,54.7,30.12,SSE,158,0.0,0.0,86,0.00,CLR,OVC,0.00,WeatherDisplay:10.37,2013-03-17 05:30:00,
2013-03-17 01:35:00,58.8,54.6,30.12,SSE,158,0.0,0.0,86,0.00,CLR,OVC,0.00,WeatherDisplay:10.37,2013-03-17 05:35:00,
2013-03-17 01:40:00,58.7,54.5,30.12,SSE,158,0.0,0.0,86,0.00,CLR,OVC,0.00,WeatherDisplay:10.37,2013-03-17 05:40:00,
2013-03-17 01:45:00,58.7,54.5,30.12,SSE,158,0.0,0.0,86,0.00,CLR,OVC,0.00,WeatherDisplay:10.37,2013-03-17 05:45:00,
2013-03-17 01:50:00,58.3,54.1,30.12,SSE,158,0.0,0.0,86,0.00,CLR,OVC,0.00,WeatherDisplay:10.37,2013-03-17 05:50:00,
2013-03-17 01:55:00,58.2,54.0,30.12,SSE,158,0.0,0.0,86,0.00,CLR,OVC,0.00,WeatherDisplay:10.37,2013-03-17 05:55:00,
2013-03-17 02:00:00,58.1,53.9,30.11,SSE,158,0.0,0.0,86,0.00,CLR,OVC,0.00,WeatherDisplay:10.37,2013-03-17 06:00:00,
2013-03-17 02:05:00,58.0,53.8,30.11,SSE,158,0.0,0.0,86,0.00,CLR,OVC,0.00,WeatherDisplay:10.37,2013-03-17 06:05:00,
2013-03-17 02:10:00,58.0,53.8,30.11,SSE,158,0.0,0.0,86,0.00,CLR,OVC,0.00,WeatherDisplay:10.37,2013-03-17 06:10:00,
2013-03-17 02:15:00,57.9,54.1,30.11,SSE,158,0.0,0.0,87,0.00,CLR,OVC,0.00,WeatherDisplay:10.37,2013-03-17 06:15:00,
2013-03-17 02:20:00,57.8,53.6,30.11,SSE,158,0.0,0.0,86,0.00,CLR,OVC,0.00,WeatherDisplay:10.37,2013-03-17 06:20:00,
2013-03-17 02:25:00,57.6,53.8,30.11,SSE,158,0.0,0.0,87,0.00,CLR,OVC,0.00,WeatherDisplay:10.37,2013-03-17 06:25:00,
2013-03-17 02:30:00,57.4,53.6,30.11,SSE,158,0.0,0.0,87,0.00,CLR,OVC,0.00,WeatherDisplay:10.37,2013-03-17 06:30:00,
2013-03-17 02:35:00,57.4,53.6,30.11,SSE,158,0.0,0.0,87,0.00,CLR,OVC,0.00,WeatherDisplay:10.37,2013-03-17 06:35:00,
2013-03-17 02:40:00,57.3,53.5,30.11,SSE,158,0.0,0.0,87,0.00,CLR,OVC,0.00,WeatherDisplay:10.37,2013-03-17 06:40:00,
2013-03-17 02:45:00,57.2,53.4,30.11,SSE,158,0.0,0.0,87,0.00,CLR,OVC,0.00,WeatherDisplay:10.37,2013-03-17 06:45:00,
2013-03-17 02:50:00,57.1,53.3,30.11,SSE,158,0.0,0.0,87,0.00,CLR,OVC,0.00,WeatherDisplay:10.37,2013-03-17 06:50:00,
2013-03-17 02:55:00,57.2,53.4,30.11,SSE,158,0.0,0.0,87,0.00,CLR,OVC,0.00,WeatherDisplay:10.37,2013-03-17 06:55:00,
2013-03-17 03:00:00,57.1,53.6,30.11,SSE,158,0.0,0.0,88,0.00,CLR,OVC,0.00,WeatherDisplay:10.37,2013-03-17 07:00:00,
2013-03-17 03:05:00,57.0,53.5,30.11,SSE,158,0.0,0.0,88,0.00,CLR,OVC,0.00,WeatherDisplay:10.37,2013-03-17 07:05:00,
2013-03-17 03:10:00,57.1,53.6,30.11,SSE,158,0.0,0.0,88,0.00,CLR,OVC,0.00,WeatherDisplay:10.37,2013-03-17 07:10:00,
2013-03-17 03:15:00,57.0,53.5,30.11,SE,144,2.2,2.4,88,0.00,CLR,OVC,0.00,WeatherDisplay:10.37,2013-03-17 07:15:00,
2013-03-17 03:20:00,56.9,53.4,30.10,SE,137,2.1,2.3,88,0.00,CLR,OVC,0.00,WeatherDisplay:10.37,2013-03-17 07:20:00,
2013-03-17 03:25:00,56.8,53.3,30.10,SSE,150,2.2,2.4,88,0.00,CLR,OVC,0.00,WeatherDisplay:10.37,2013-03-17 07:25:00,
2013-03-17 03:30:00,56.8,53.3,30.10,SE,145,2.4,2.4,88,0.00,CLR,OVC,0.00,WeatherDisplay:10.37,2013-03-17 07:30:00,
2013-03-17 03:35:00,56.8,53.3,30.10,SE,140,2.3,2.8,88,0.00,CLR,OVC,0.00,WeatherDisplay:10.37,2013-03-17 07:35:00,
2013-03-17 03:40:00,56.9,53.4,30.10,SE,137,3.1,3.5,88,0.00,CLR,OVC,0.00,WeatherDisplay:10.37,2013-03-17 07:40:00,
2013-03-17 03:45:00,56.8,53.6,30.10,SE,138,3.7,4.6,89,0.00,CLR,OVC,0.00,WeatherDisplay:10.37,2013-03-17 07:45:00,
2013-03-17 03:50:00,56.9,53.7,30.09,SE,137,4.7,5.8,89,0.00,CLR,OVC,0.00,WeatherDisplay:10.37,2013-03-17 07:50:00,
2013-03-17 03:55:00,57.1,54.2,30.09,SSE,151,3.5,4.6,90,0.00,CLR,OVC,0.00,WeatherDisplay:10.37,2013-03-17 07:55:00,
2013-03-17 04:00:00,57.2,54.3,30.09,SE,145,2.7,3.5,90,0.00,CLR,OVC,0.00,WeatherDisplay:10.37,2013-03-17 08:00:00,
2013-03-17 04:05:00,57.4,54.8,30.09,SE,140,3.3,4.6,91,0.00,CLR,OVC,0.00,WeatherDisplay:10.37,2013-03-17 08:05:00,
2013-03-17 04:10:00,57.6,55.0,30.09,SSE,147,4.0,4.6,91,0.00,CLR,OVC,0.00,WeatherDisplay:10.37,2013-03-17 08:10:00,
2013-03-17 04:15:00,57.8,55.5,30.09,SE,145,4.0,4.6,92,0.00,CLR,OVC,0.00,WeatherDisplay:10.37,2013-03-17 08:15:00,
2013-03-17 04:20:00,58.0,55.7,30.09,SSE,147,4.1,5.3,92,0.00,CLR,OVC,0.00,WeatherDisplay:10.37,2013-03-17 08:20:00,
2013-03-17 04:25:00,58.0,55.7,30.09,SSE,154,4.7,5.8,92,0.00,CLR,OVC,0.00,WeatherDisplay:10.37,2013-03-17 08:25:00,
2013-03-17 04:30:00,58.1,55.8,30.09,SE,140,3.7,3.7,92,0.00,CLR,OVC,0.00,WeatherDisplay:10.37,2013-03-17 08:30:00,
2013-03-17 04:35:00,58.1,56.1,30.08,SSE,147,4.4,5.8,93,0.00,CLR,OVC,0.00,WeatherDisplay:10.37,2013-03-17 08:35:00,
2013-03-17 04:40:00,58.2,56.2,30.08,SE,136,3.6,4.6,93,0.00,CLR,OVC,0.00,WeatherDisplay:10.37,2013-03-17 08:40:00,
2013-03-17 04:46:00,58.2,56.2,30.08,SE,145,3.2,4.6,93,0.00,CLR,OVC,0.00,WeatherDisplay:10.37,2013-03-17 08:46:00,
2013-03-17 04:51:00,58.2,56.2,30.08,SE,128,2.5,3.5,93,0.00,CLR,OVC,0.00,WeatherDisplay:10.37,2013-03-17 08:51:00,
2013-03-17 04:56:00,58.0,56.0,30.09,SSE,151,1.8,2.3,93,0.00,CLR,OVC,0.00,WeatherDisplay:10.37,2013-03-17 08:56:00,
2013-03-17 05:01:00,57.9,55.9,30.09,SSE,150,3.7,3.9,93,0.00,CLR,OVC,0.00,WeatherDisplay:10.37,2013-03-17 09:01:00,
2013-03-17 05:06:00,57.7,55.4,30.09,SSE,151,2.4,3.5,92,0.00,CLR,OVC,0.00,WeatherDisplay:10.37,2013-03-17 09:06:00,
2013-03-17 05:11:00,57.7,55.7,30.09,SSE,150,1.9,3.5,93,0.00,CLR,OVC,0.00,WeatherDisplay:10.37,2013-03-17 09:11:00,
2013-03-17 05:16:00,57.6,55.3,30.09,SE,143,2.3,3.5,92,0.00,CLR,OVC,0.00,WeatherDisplay:10.37,2013-03-17 09:16:00,
2013-03-17 05:21:00,57.5,55.2,30.09,SE,143,3.5,4.1,92,0.00,CLR,OVC,0.00,WeatherDisplay:10.37,2013-03-17 09:21:00,
2013-03-17 05:26:00,57.3,55.0,30.09,SSE,150,4.5,4.6,92,0.00,CLR,OVC,0.00,WeatherDisplay:10.37,2013-03-17 09:26:00,
2013-03-17 05:31:00,57.3,55.0,30.09,SSE,155,4.2,5.8,92,0.00,CLR,OVC,0.00,WeatherDisplay:10.37,2013-03-17 09:31:00,
2013-03-17 05:36:00,57.4,55.4,30.09,SSE,150,4.5,5.8,93,0.00,CLR,OVC,0.00,WeatherDisplay:10.37,2013-03-17 09:36:00,
2013-03-17 05:41:00,57.8,56.1,30.09,SSE,148,4.3,4.6,94,0.00,CLR,OVC,0.00,WeatherDisplay:10.37,2013-03-17 09:41:00,
2013-03-17 05:46:00,58.0,56.3,30.10,SE,141,3.7,4.6,94,0.00,CLR,OVC,0.00,WeatherDisplay:10.37,2013-03-17 09:46:00,
2013-03-17 05:51:00,58.1,56.4,30.09,SE,133,3.7,4.6,94,0.00,CLR,OVC,0.00,WeatherDisplay:10.37,2013-03-17 09:51:00,
2013-03-17 05:56:00,58.2,56.5,30.09,SE,145,4.9,5.8,94,0.00,CLR,OVC,0.00,WeatherDisplay:10.37,2013-03-17 09:56:00,
2013-03-17 06:01:00,58.3,56.6,30.09,SSE,154,5.1,6.9,94,0.00,CLR,OVC,0.00,WeatherDisplay:10.37,2013-03-17 10:01:00,
2013-03-17 06:06:00,58.6,57.2,30.10,SSE,155,3.3,4.6,95,0.00,CLR,OVC,0.00,WeatherDisplay:10.37,2013-03-17 10:06:00,
2013-03-17 06:11:00,58.6,57.2,30.10,SSE,154,4.6,5.8,95,0.00,CLR,OVC,0.00,WeatherDisplay:10.37,2013-03-17 10:11:00,
2013-03-17 06:16:00,58.6,57.2,30.10,SSE,162,3.1,4.6,95,0.00,CLR,OVC,0.00,WeatherDisplay:10.37,2013-03-17 10:16:00,
2013-03-17 06:21:00,58.7,57.3,30.10,SSE,155,3.4,5.8,95,0.00,CLR,OVC,0.00,WeatherDisplay:10.37,2013-03-17 10:21:00,
2013-03-17 06:26:00,58.6,57.2,30.10,SSE,150,3.7,4.8,95,0.00,CLR,OVC,0.00,WeatherDisplay:10.37,2013-03-17 10:26:00,
2013-03-17 06:31:00,58.4,57.0,30.10,SE,138,3.1,4.6,95,0.00,CLR,OVC,0.00,WeatherDisplay:10.37,2013-03-17 10:31:00,
2013-03-17 06:36:00,58.4,57.0,30.11,SE,143,3.2,3.5,95,0.00,CLR,OVC,0.00,WeatherDisplay:10.37,2013-03-17 10:36:00,
2013-03-17 06:41:00,58.4,57.0,30.11,ESE,117,3.5,4.6,95,0.00,CLR,OVC,0.00,WeatherDisplay:10.37,2013-03-17 10:41:00,
2013-03-17 06:46:00,58.4,57.0,30.11,ESE,112,2.9,4.6,95,0.00,CLR,OVC,0.00,WeatherDisplay:10.37,2013-03-17 10:46:00,
2013-03-17 06:51:00,58.4,57.0,30.11,SE,143,3.8,6.9,95,0.00,CLR,OVC,0.00,WeatherDisplay:10.37,2013-03-17 10:51:00,
2013-03-17 06:56:00,58.4,57.0,30.11,SSE,165,4.5,5.8,95,0.00,CLR,OVC,0.00,WeatherDisplay:10.37,2013-03-17 10:56:00,
2013-03-17 07:01:00,58.4,57.3,30.11,SSE,157,4.3,5.8,96,0.00,CLR,OVC,0.00,WeatherDisplay:10.37,2013-03-17 11:01:00,
2013-03-17 07:06:00,58.6,57.5,30.11,SE,138,2.4,4.6,96,0.00,CLR,OVC,0.00,WeatherDisplay:10.37,2013-03-17 11:06:00,
2013-03-17 07:11:00,58.6,57.5,30.11,SSE,147,1.5,3.5,96,0.00,CLR,OVC,0.00,WeatherDisplay:10.37,2013-03-17 11:11:00,
2013-03-17 07:16:00,58.7,57.6,30.12,SE,137,2.9,2.9,96,0.00,CLR,OVC,0.00,WeatherDisplay:10.37,2013-03-17 11:16:00,
2013-03-17 07:21:00,58.6,57.2,30.12,ESE,103,1.4,3.5,95,0.00,CLR,OVC,0.00,WeatherDisplay:10.37,2013-03-17 11:21:00,
2013-03-17 07:26:00,58.6,57.2,30.12,ESE,116,0.1,3.5,95,0.00,CLR,OVC,0.00,WeatherDisplay:10.37,2013-03-17 11:26:00,
2013-03-17 07:31:00,58.5,57.1,30.12,SE,134,2.6,4.6,95,0.00,CLR,OVC,0.00,WeatherDisplay:10.37,2013-03-17 11:31:00,
2013-03-17 07:36:00,58.6,57.2,30.12,ESE,106,2.2,4.6,95,0.00,CLR,OVC,0.00,WeatherDisplay:10.37,2013-03-17 11:36:00,
2013-03-17 07:41:00,58.6,57.2,30.12,SE,145,2.5,4.6,95,0.00,CLR,OVC,0.00,WeatherDisplay:10.37,2013-03-17 11:41:00,
2013-03-17 07:46:00,58.7,57.3,30.12,ESE,114,3.5,4.6,95,0.00,CLR,OVC,0.00,WeatherDisplay:10.37,2013-03-17 11:46:00,
2013-03-17 07:51:00,58.8,57.4,30.13,ESE,119,2.5,4.6,95,0.00,CLR,OVC,0.00,WeatherDisplay:10.37,2013-03-17 11:51:00,
2013-03-17 07:56:00,58.8,57.4,30.13,SE,140,1.7,3.5,95,0.00,CLR,OVC,0.00,WeatherDisplay:10.37,2013-03-17 11:56:00,
2013-03-17 08:01:00,58.8,57.4,30.13,SE,138,2.6,4.6,95,0.00,CLR,OVC,0.00,WeatherDisplay:10.37,2013-03-17 12:01:00,
2013-03-17 08:06:00,58.9,57.8,30.13,SSE,151,3.4,4.6,96,0.00,CLR,OVC,0.00,WeatherDisplay:10.37,2013-03-17 12:06:00,
2013-03-17 08:11:00,58.9,57.8,30.13,SE,143,3.7,5.8,96,0.00,CLR,OVC,0.00,WeatherDisplay:10.37,2013-03-17 12:11:00,
2013-03-17 08:16:00,59.1,58.0,30.14,SE,126,3.8,4.6,96,0.00,CLR,OVC,0.00,WeatherDisplay:10.37,2013-03-17 12:16:00,
2013-03-17 08:22:00,59.2,58.1,30.14,SSE,160,2.9,3.5,96,0.00,CLR,OVC,0.00,WeatherDisplay:10.37,2013-03-17 12:22:00,
2013-03-17 08:27:00,59.3,58.2,30.14,SE,136,4.3,6.9,96,0.00,CLR,OVC,0.00,WeatherDisplay:10.37,2013-03-17 12:27:00,
2013-03-17 08:32:00,59.4,58.3,30.14,SE,136,3.4,4.6,96,0.00,CLR,OVC,0.00,WeatherDisplay:10.37,2013-03-17 12:32:00,
2013-03-17 08:37:00,59.5,58.4,30.14,ESE,103,2.2,4.6,96,0.00,CLR,OVC,0.00,WeatherDisplay:10.37,2013-03-17 12:37:00,
2013-03-17 08:42:00,59.6,58.5,30.14,SE,134,3.4,4.6,96,0.00,CLR,OVC,0.00,WeatherDisplay:10.37,2013-03-17 12:42:00,
2013-03-17 08:47:00,59.8,58.7,30.14,SSE,147,3.6,4.6,96,0.00,CLR,OVC,0.00,WeatherDisplay:10.37,2013-03-17 12:47:00,
2013-03-17 08:52:00,60.2,58.8,30.14,SE,136,4.6,6.9,95,0.00,CLR,OVC,0.00,WeatherDisplay:10.37,2013-03-17 12:52:00,
2013-03-17 08:57:00,60.4,59.0,30.14,SE,128,4.7,8.1,95,0.00,CLR,OVC,0.00,WeatherDisplay:10.37,2013-03-17 12:57:00,
2013-03-17 09:02:00,60.6,59.2,30.14,ESE,121,5.3,6.9,95,0.00,CLR,OVC,0.00,WeatherDisplay:10.37,2013-03-17 13:02:00,
2013-03-17 09:07:00,61.0,59.6,30.14,SSE,148,3.4,5.8,95,0.00,CLR,OVC,0.00,WeatherDisplay:10.37,2013-03-17 13:07:00,
2013-03-17 09:12:00,61.3,59.9,30.14,ESE,103,4.7,6.9,95,0.00,CLR,OVC,0.00,WeatherDisplay:10.37,2013-03-17 13:12:00,
2013-03-17 09:17:00,61.5,59.8,30.13,SE,144,5.9,8.1,94,0.00,CLR,OVC,0.00,WeatherDisplay:10.37,2013-03-17 13:17:00,
2013-03-17 09:22:00,62.1,60.4,30.13,ENE,66,2.6,8.1,94,0.00,CLR,OVC,0.00,WeatherDisplay:10.37,2013-03-17 13:22:00,
2013-03-17 09:27:00,62.5,60.1,30.13,SE,134,6.1,9.2,92,0.00,CLR,OVC,0.00,WeatherDisplay:10.37,2013-03-17 13:27:00,
2013-03-17 09:32:00,63.0,60.3,30.14,SSE,151,5.9,8.1,91,0.00,CLR,OVC,0.00,WeatherDisplay:10.37,2013-03-17 13:32:00,
2013-03-17 09:37:00,63.8,60.5,30.14,SSE,151,5.6,8.1,89,0.00,CLR,OVC,0.00,WeatherDisplay:10.37,2013-03-17 13:37:00,
2013-03-17 09:42:00,64.1,59.8,30.14,SSE,154,6.3,9.2,86,0.00,CLR,OVC,0.00,WeatherDisplay:10.37,2013-03-17 13:42:00,
2013-03-17 09:47:00,64.3,59.4,30.14,SE,143,6.4,8.1,84,0.00,CLR,OVC,0.00,WeatherDisplay:10.37,2013-03-17 13:47:00,
2013-03-17 09:52:00,64.6,58.3,30.14,SSE,167,7.6,8.4,80,0.00,CLR,OVC,0.00,WeatherDisplay:10.37,2013-03-17 13:52:00,
2013-03-17 09:57:00,64.8,58.5,30.15,SSE,158,3.0,5.8,80,0.00,CLR,OVC,0.00,WeatherDisplay:10.37,2013-03-17 13:57:00,
2013-03-17 10:02:00,64.9,58.2,30.14,SSE,150,4.3,5.8,79,0.00,CLR,OVC,0.00,WeatherDisplay:10.37,2013-03-17 14:02:00,
2013-03-17 10:07:00,64.9,58.2,30.15,SE,145,5.1,5.1,79,0.00,CLR,OVC,0.00,WeatherDisplay:10.37,2013-03-17 14:07:00,
2013-03-17 10:12:00,65.1,58.4,30.15,SE,134,4.2,4.2,79,0.00,CLR,OVC,0.00,WeatherDisplay:10.37,2013-03-17 14:12:00,
2013-03-17 10:18:00,65.3,58.6,30.14,East,82,3.2,4.6,79,0.00,CLR,OVC,0.00,WeatherDisplay:10.37,2013-03-17 14:18:00,
2013-03-17 10:23:00,65.5,58.8,30.15,SSE,148,5.1,8.1,79,0.00,CLR,OVC,0.00,WeatherDisplay:10.37,2013-03-17 14:23:00,
2013-03-17 10:28:00,65.9,59.2,30.16,SE,128,5.5,6.9,79,0.00,CLR,OVC,0.00,WeatherDisplay:10.37,2013-03-17 14:28:00,
2013-03-17 10:33:00,66.1,59.0,30.16,SSE,147,3.6,5.8,78,0.00,CLR,OVC,0.00,WeatherDisplay:10.37,2013-03-17 14:33:00,
2013-03-17 10:38:00,66.7,59.6,30.16,SSE,161,4.3,6.9,78,0.00,CLR,OVC,0.00,WeatherDisplay:10.37,2013-03-17 14:38:00,
2013-03-17 10:43:00,67.1,59.3,30.16,SE,133,5.5,8.1,76,0.00,CLR,OVC,0.00,WeatherDisplay:10.37,2013-03-17 14:43:00,
2013-03-17 10:48:00,67.5,59.7,30.17,South,178,5.2,8.1,76,0.00,CLR,OVC,0.00,WeatherDisplay:10.37,2013-03-17 14:48:00,
2013-03-17 10:53:00,68.1,59.5,30.16,SE,145,5.6,6.9,74,0.00,CLR,OVC,0.00,WeatherDisplay:10.37,2013-03-17 14:53:00,
2013-03-17 10:58:00,68.4,59.0,30.16,SE,143,6.5,8.1,72,0.00,CLR,OVC,0.00,WeatherDisplay:10.37,2013-03-17 14:58:00,
2013-03-17 11:03:00,69.0,59.2,30.15,SSE,150,7.9,10.4,71,0.00,CLR,OVC,0.00,WeatherDisplay:10.37,2013-03-17 15:03:00,
2013-03-17 11:08:00,69.4,58.0,30.15,South,178,9.1,11.5,67,0.00,CLR,OVC,0.00,WeatherDisplay:10.37,2013-03-17 15:08:00,
2013-03-17 11:13:00,69.5,58.5,30.15,East,95,6.3,6.9,68,0.00,CLR,OVC,0.00,WeatherDisplay:10.37,2013-03-17 15:13:00,
2013-03-17 11:18:00,69.7,58.7,30.15,South,182,6.4,9.2,68,0.00,CLR,OVC,0.00,WeatherDisplay:10.37,2013-03-17 15:18:00,
2013-03-17 11:23:00,70.3,59.2,30.15,SSE,162,4.5,5.8,68,0.00,CLR,OVC,0.00,WeatherDisplay:10.37,2013-03-17 15:23:00,
2013-03-17 11:28:00,71.3,59.4,30.15,SE,136,8.1,10.4,66,0.00,CLR,OVC,0.00,WeatherDisplay:10.37,2013-03-17 15:28:00,
2013-03-17 11:33:00,71.9,58.6,30.16,SSW,200,8.1,11.5,63,0.00,CLR,OVC,0.00,WeatherDisplay:10.37,2013-03-17 15:33:00,
2013-03-17 11:38:00,72.4,58.2,30.16,South,175,8.5,11.5,61,0.00,CLR,OVC,0.00,WeatherDisplay:10.37,2013-03-17 15:38:00,
2013-03-17 11:43:00,73.2,57.5,30.16,SSE,158,7.5,10.4,58,0.00,CLR,OVC,0.00,WeatherDisplay:10.37,2013-03-17 15:43:00,
2013-03-17 11:48:00,73.9,58.7,30.15,SE,140,9.8,12.6,59,0.00,CLR,OVC,0.00,WeatherDisplay:10.37,2013-03-17 15:48:00,
2013-03-17 11:53:00,74.6,57.9,30.15,SE,144,12.1,16.1,56,0.00,CLR,OVC,0.00,WeatherDisplay:10.37,2013-03-17 15:53:00,
2013-03-17 11:58:00,74.8,57.5,30.15,SSE,168,10.3,13.8,55,0.00,CLR,OVC,0.00,WeatherDisplay:10.37,2013-03-17 15:58:00,
2013-03-17 12:03:00,74.4,57.7,30.15,SSE,168,6.1,9.2,56,0.00,CLR,OVC,0.00,WeatherDisplay:10.37,2013-03-17 16:03:00,
2013-03-17 12:08:00,74.1,58.4,30.15,SSE,164,11.1,16.1,58,0.00,CLR,OVC,0.00,WeatherDisplay:10.37,2013-03-17 16:08:00,
2013-03-17 12:13:00,73.9,58.2,30.14,SSE,147,7.5,11.3,58,0.00,CLR,OVC,0.00,WeatherDisplay:10.37,2013-03-17 16:13:00,
2013-03-17 12:18:00,73.6,57.9,30.14,SSW,192,8.6,13.0,58,0.00,CLR,OVC,0.00,WeatherDisplay:10.37,2013-03-17 16:18:00,
2013-03-17 12:23:00,73.2,58.0,30.14,SE,144,11.7,15.0,59,0.00,CLR,OVC,0.00,WeatherDisplay:10.37,2013-03-17 16:23:00,
2013-03-17 12:28:00,73.3,58.1,30.14,SSE,162,11.0,13.8,59,0.00,CLR,OVC,0.00,WeatherDisplay:10.37,2013-03-17 16:28:00,
2013-03-17 12:33:00,73.8,58.6,30.14,South,179,7.5,12.7,59,0.00,CLR,OVC,0.00,WeatherDisplay:10.37,2013-03-17 16:33:00,
2013-03-17 12:38:00,74.3,58.6,30.14,SSE,161,7.3,10.4,58,0.00,CLR,OVC,0.00,WeatherDisplay:10.37,2013-03-17 16:38:00,
2013-03-17 12:43:00,74.6,58.4,30.14,South,171,10.1,13.8,57,0.00,CLR,OVC,0.00,WeatherDisplay:10.37,2013-03-17 16:43:00,
2013-03-17 12:48:00,74.7,58.9,30.14,South,191,7.1,12.7,58,0.00,CLR,OVC,0.00,WeatherDisplay:10.37,2013-03-17 16:48:00,
2013-03-17 12:53:00,75.0,59.2,30.14,South,171,8.0,10.4,58,0.00,CLR,OVC,0.00,WeatherDisplay:10.37,2013-03-17 16:53:00,
2013-03-17 12:58:00,75.3,59.0,30.14,South,188,6.1,11.5,57,0.00,CLR,OVC,0.00,WeatherDisplay:10.37,2013-03-17 16:58:00,
2013-03-17 13:03:00,75.9,60.1,30.13,South,184,12.5,15.0,58,0.00,CLR,OVC,0.00,WeatherDisplay:10.37,2013-03-17 17:03:00,
2013-03-17 13:08:00,76.2,59.4,30.13,South,181,10.6,10.6,56,0.00,CLR,OVC,0.00,WeatherDisplay:10.37,2013-03-17 17:08:00,
2013-03-17 13:13:00,76.7,60.3,30.12,SSE,162,11.3,16.1,57,0.00,CLR,OVC,0.00,WeatherDisplay:10.37,2013-03-17 17:13:00,
2013-03-17 13:18:00,77.1,59.2,30.12,South,178,9.1,13.8,54,0.00,CLR,OVC,0.00,WeatherDisplay:10.37,2013-03-17 17:18:00,
2013-03-17 13:23:00,76.8,59.9,30.12,SSW,200,10.4,14.5,56,0.00,CLR,OVC,0.00,WeatherDisplay:10.37,2013-03-17 17:23:00,
2013-03-17 13:28:00,77.0,60.1,30.12,South,175,10.6,15.1,56,0.00,CLR,OVC,0.00,WeatherDisplay:10.37,2013-03-17 17:28:00,
2013-03-17 13:33:00,77.1,59.2,30.12,SSE,161,11.9,15.0,54,0.00,CLR,OVC,0.00,WeatherDisplay:10.37,2013-03-17 17:33:00,
2013-03-17 13:38:00,77.1,59.7,30.11,SSW,193,12.1,17.3,55,0.00,CLR,OVC,0.00,WeatherDisplay:10.37,2013-03-17 17:38:00,
2013-03-17 13:43:00,77.2,59.8,30.11,SSW,192,9.9,15.0,55,0.00,CLR,OVC,0.00,WeatherDisplay:10.37,2013-03-17 17:43:00,
2013-03-17 13:48:00,77.0,60.1,30.11,SSW,192,9.7,11.3,56,0.00,CLR,OVC,0.00,WeatherDisplay:10.37,2013-03-17 17:48:00,
2013-03-17 13:53:00,77.2,59.8,30.11,SSW,210,12.1,16.1,55,0.00,CLR,OVC,0.00,WeatherDisplay:10.37,2013-03-17 17:53:00,
2013-03-17 13:58:00,77.0,59.6,30.11,SSE,168,9.1,12.7,55,0.00,CLR,OVC,0.00,WeatherDisplay:10.37,2013-03-17 17:58:00,
2013-03-17 14:03:00,76.4,60.0,30.10,SSW,196,9.5,16.1,57,0.00,CLR,OVC,0.00,WeatherDisplay:10.37,2013-03-17 18:03:00,
2013-03-17 14:08:00,76.3,59.9,30.10,SSW,213,12.0,15.0,57,0.00,CLR,OVC,0.00,WeatherDisplay:10.37,2013-03-17 18:08:00,
2013-03-17 14:13:00,76.8,60.4,30.10,South,182,10.4,12.7,57,0.00,CLR,OVC,0.00,WeatherDisplay:10.37,2013-03-17 18:13:00,
2013-03-17 14:18:00,77.2,60.8,30.09,South,181,10.3,15.0,57,0.00,CLR,OVC,0.00,WeatherDisplay:10.37,2013-03-17 18:18:00,
2013-03-17 14:23:00,77.9,59.9,30.09,South,176,11.8,16.1,54,0.00,CLR,OVC,0.00,WeatherDisplay:10.37,2013-03-17 18:23:00,
2013-03-17 14:28:00,77.8,59.8,30.09,South,191,9.9,17.3,54,0.00,CLR,OVC,0.00,WeatherDisplay:10.37,2013-03-17 18:28:00,
2013-03-17 14:33:00,77.2,60.3,30.09,South,188,10.5,17.3,56,0.00,CLR,OVC,0.00,WeatherDisplay:10.37,2013-03-17 18:33:00,
2013-03-17 14:38:00,76.4,60.0,30.09,South,189,11.7,13.8,57,0.00,CLR,OVC,0.00,WeatherDisplay:10.37,2013-03-17 18:38:00,
2013-03-17 14:43:00,76.1,59.8,30.09,South,174,12.0,20.7,57,0.00,CLR,OVC,0.00,WeatherDisplay:10.37,2013-03-17 18:43:00,
2013-03-17 14:48:00,75.9,60.5,30.08,South,169,7.4,9.6,59,0.00,CLR,OVC,0.00,WeatherDisplay:10.37,2013-03-17 18:48:00,
2013-03-17 14:53:00,75.5,59.7,30.08,SSW,195,13.6,15.0,58,0.00,CLR,OVC,0.00,WeatherDisplay:10.37,2013-03-17 18:53:00,
2013-03-17 14:58:00,75.3,60.0,30.08,SSW,209,9.8,13.8,59,0.00,CLR,OVC,0.00,WeatherDisplay:10.37,2013-03-17 18:58:00,
2013-03-17 15:03:00,75.1,59.8,30.08,SSW,210,10.4,15.0,59,0.00,CLR,OVC,0.00,WeatherDisplay:10.37,2013-03-17 19:03:00,
2013-03-17 15:08:00,75.4,60.1,30.07,South,185,11.9,15.0,59,0.00,CLR,OVC,0.00,WeatherDisplay:10.37,2013-03-17 19:08:00,
2013-03-17 15:13:00,74.8,60.4,30.07,SSW,195,10.7,17.3,61,0.00,CLR,OVC,0.00,WeatherDisplay:10.37,2013-03-17 19:13:00,
2013-03-17 15:18:00,74.2,60.3,30.07,SSW,213,11.6,18.4,62,0.00,CLR,OVC,0.00,WeatherDisplay:10.37,2013-03-17 19:18:00,
2013-03-17 15:23:00,73.4,60.5,30.07,SSW,208,12.2,17.3,64,0.00,CLR,OVC,0.00,WeatherDisplay:10.37,2013-03-17 19:23:00,
2013-03-17 15:28:00,73.4,60.5,30.06,South,191,9.3,15.0,64,0.00,CLR,OVC,0.00,WeatherDisplay:10.37,2013-03-17 19:28:00,
2013-03-17 15:33:00,73.4,60.5,30.06,South,172,10.9,16.1,64,0.00,CLR,OVC,0.00,WeatherDisplay:10.37,2013-03-17 19:33:00,
2013-03-17 15:38:00,73.1,60.2,30.06,South,179,10.9,17.3,64,0.00,CLR,OVC,0.00,WeatherDisplay:10.37,2013-03-17 19:38:00,
2013-03-17 15:43:00,72.7,60.3,30.06,SSW,195,10.8,15.0,65,0.00,CLR,OVC,0.00,WeatherDisplay:10.37,2013-03-17 19:43:00,
2013-03-17 15:48:00,72.5,60.5,30.05,SSE,167,10.4,16.1,66,0.00,CLR,OVC,0.00,WeatherDisplay:10.37,2013-03-17 19:48:00,
2013-03-17 15:53:00,72.5,60.5,30.05,South,179,11.6,12.7,66,0.00,CLR,OVC,0.00,WeatherDisplay:10.37,2013-03-17 19:53:00,
2013-03-17 15:58:00,72.2,60.6,30.05,SW,226,10.1,13.8,67,0.00,CLR,OVC,0.00,WeatherDisplay:10.37,2013-03-17 19:58:00,
2013-03-17 16:03:00,72.4,60.8,30.04,South,185,7.5,9.2,67,0.00,CLR,OVC,0.00,WeatherDisplay:10.37,2013-03-17 20:03:00,
2013-03-17 16:08:00,72.6,60.6,30.05,SSE,167,8.9,12.2,66,0.00,CLR,OVC,0.00,WeatherDisplay:10.37,2013-03-17 20:08:00,
2013-03-17 16:13:00,72.8,60.8,30.04,SSW,193,7.7,15.0,66,0.00,CLR,OVC,0.00,WeatherDisplay:10.37,2013-03-17 20:13:00,
2013-03-17 16:18:00,72.9,61.3,30.04,South,189,8.2,9.2,67,0.00,CLR,OVC,0.00,WeatherDisplay:10.37,2013-03-17 20:18:00,
2013-03-17 16:23:00,72.8,61.6,30.04,SSW,192,8.6,9.3,68,0.00,CLR,OVC,0.00,WeatherDisplay:10.37,2013-03-17 20:23:00,
2013-03-17 16:28:00,72.3,62.4,30.04,South,181,8.8,13.8,71,0.00,CLR,OVC,0.00,WeatherDisplay:10.37,2013-03-17 20:28:00,
2013-03-17 16:33:00,72.2,62.7,30.04,SW,220,5.0,6.9,72,0.00,CLR,OVC,0.00,WeatherDisplay:10.37,2013-03-17 20:33:00,
2013-03-17 16:38:00,71.8,61.9,30.04,South,175,6.2,9.2,71,0.00,CLR,OVC,0.00,WeatherDisplay:10.37,2013-03-17 20:38:00,
2013-03-17 16:43:00,71.5,62.0,30.04,SSW,193,7.0,11.5,72,0.00,CLR,OVC,0.00,WeatherDisplay:10.37,2013-03-17 20:43:00,
2013-03-17 16:49:00,71.3,61.8,30.04,SSW,196,5.4,11.5,72,0.00,CLR,OVC,0.00,WeatherDisplay:10.37,2013-03-17 20:49:00,
2013-03-17 16:54:00,71.1,61.2,30.04,SSW,200,8.3,11.5,71,0.00,CLR,OVC,0.00,WeatherDisplay:10.37,2013-03-17 20:54:00,
2013-03-17 16:59:00,71.2,61.7,30.04,SE,143,8.3,10.4,72,0.00,CLR,OVC,0.00,WeatherDisplay:10.37,2013-03-17 20:59:00,
2013-03-17 17:04:00,71.2,61.3,30.04,SSW,192,7.3,9.2,71,0.00,CLR,OVC,0.00,WeatherDisplay:10.37,2013-03-17 21:04:00,
2013-03-17 17:09:00,71.4,61.5,30.03,South,185,6.3,9.2,71,0.00,CLR,OVC,0.00,WeatherDisplay:10.37,2013-03-17 21:09:00,
2013-03-17 17:14:00,71.4,61.1,30.04,South,188,5.9,8.1,70,0.00,CLR,OVC,0.00,WeatherDisplay:10.37,2013-03-17 21:14:00,
2013-03-17 17:19:00,71.3,61.0,30.04,South,176,7.2,8.1,70,0.00,CLR,OVC,0.00,WeatherDisplay:10.37,2013-03-17 21:19:00,
2013-03-17 17:24:00,71.3,61.0,30.04,South,176,5.6,8.1,70,0.00,CLR,OVC,0.00,WeatherDisplay:10.37,2013-03-17 21:24:00,
2013-03-17 17:29:00,71.2,60.9,30.04,SSE,161,8.3,13.8,70,0.00,CLR,OVC,0.00,WeatherDisplay:10.37,2013-03-17 21:29:00,
2013-03-17 17:34:00,71.1,60.8,30.04,South,182,7.8,14.3,70,0.00,CLR,OVC,0.00,WeatherDisplay:10.37,2013-03-17 21:34:00,
2013-03-17 17:39:00,71.1,61.2,30.05,South,182,8.1,10.4,71,0.00,CLR,OVC,0.00,WeatherDisplay:10.37,2013-03-17 21:39:00,
2013-03-17 17:44:00,71.0,61.1,30.05,SSW,196,7.0,11.5,71,0.00,CLR,OVC,0.00,WeatherDisplay:10.37,2013-03-17 21:44:00,
2013-03-17 17:49:00,70.9,61.0,30.05,SSW,199,8.6,11.5,71,0.00,CLR,OVC,0.00,WeatherDisplay:10.37,2013-03-17 21:49:00,
2013-03-17 17:54:00,71.0,61.5,30.04,South,186,5.9,9.2,72,0.00,CLR,OVC,0.00,WeatherDisplay:10.37,2013-03-17 21:54:00,
2013-03-17 17:59:00,71.1,61.6,30.04,South,172,6.1,9.2,72,0.00,CLR,OVC,0.00,WeatherDisplay:10.37,2013-03-17 21:59:00,
2013-03-17 18:04:00,71.1,60.8,30.04,SSW,192,8.9,12.7,70,0.00,CLR,OVC,0.00,WeatherDisplay:10.37,2013-03-17 22:04:00,
2013-03-17 18:09:00,71.0,61.1,30.04,SSE,162,8.5,9.2,71,0.00,CLR,OVC,0.00,WeatherDisplay:10.37,2013-03-17 22:09:00,
2013-03-17 18:14:00,71.2,61.3,30.04,South,184,4.9,8.1,71,0.00,CLR,OVC,0.00,WeatherDisplay:10.37,2013-03-17 22:14:00,
2013-03-17 18:19:00,71.1,60.8,30.04,South,178,6.4,8.1,70,0.00,CLR,OVC,0.00,WeatherDisplay:10.37,2013-03-17 22:19:00,
2013-03-17 18:24:00,70.9,61.0,30.04,South,171,5.5,10.4,71,0.00,CLR,OVC,0.00,WeatherDisplay:10.37,2013-03-17 22:24:00,
2013-03-17 18:29:00,70.9,61.0,30.04,SSW,196,4.9,5.8,71,0.00,CLR,OVC,0.00,WeatherDisplay:10.37,2013-03-17 22:29:00,
2013-03-17 18:34:00,70.8,60.5,30.04,SSW,213,5.5,8.1,70,0.00,CLR,OVC,0.00,WeatherDisplay:10.37,2013-03-17 22:34:00,
2013-03-17 18:40:00,70.7,60.4,30.05,South,186,4.7,5.8,70,0.00,CLR,OVC,0.00,WeatherDisplay:10.37,2013-03-17 22:40:00,
2013-03-17 18:45:00,70.8,60.5,30.04,SSE,158,4.8,5.8,70,0.00,CLR,OVC,0.00,WeatherDisplay:10.37,2013-03-17 22:45:00,
2013-03-17 18:50:00,70.9,61.0,30.04,South,185,7.4,9.2,71,0.00,CLR,OVC,0.00,WeatherDisplay:10.37,2013-03-17 22:50:00,
2013-03-17 18:55:00,70.7,60.8,30.04,South,179,4.4,6.9,71,0.00,CLR,OVC,0.00,WeatherDisplay:10.37,2013-03-17 22:55:00,
2013-03-17 19:00:00,70.6,60.7,30.04,South,184,6.3,8.1,71,0.00,CLR,OVC,0.00,WeatherDisplay:10.37,2013-03-17 23:00:00,
2013-03-17 19:05:00,70.6,60.7,30.04,South,188,6.1,8.4,71,0.00,CLR,OVC,0.00,WeatherDisplay:10.37,2013-03-17 23:05:00,
2013-03-17 19:10:00,70.5,61.0,30.04,South,182,6.9,9.2,72,0.00,CLR,OVC,0.00,WeatherDisplay:10.37,2013-03-17 23:10:00,
2013-03-17 19:15:00,70.5,61.0,30.04,SSW,199,5.7,8.5,72,0.00,CLR,OVC,0.00,WeatherDisplay:10.37,2013-03-17 23:15:00,
2013-03-17 19:20:00,70.3,61.2,30.05,South,191,6.7,8.1,73,0.00,CLR,OVC,0.00,WeatherDisplay:10.37,2013-03-17 23:20:00,
2013-03-17 19:25:00,69.9,60.8,30.05,SSE,167,6.2,8.1,73,0.00,CLR,OVC,0.00,WeatherDisplay:10.37,2013-03-17 23:25:00,
2013-03-17 19:30:00,69.8,60.8,30.04,SSE,167,4.5,6.9,73,0.00,CLR,OVC,0.00,WeatherDisplay:10.37,2013-03-17 23:30:00,
2013-03-17 19:35:00,70.0,61.3,30.04,South,186,5.7,5.9,74,0.00,CLR,OVC,0.00,WeatherDisplay:10.37,2013-03-17 23:35:00,
2013-03-17 19:40:00,69.8,61.1,30.03,South,185,5.2,6.9,74,0.00,CLR,OVC,0.00,WeatherDisplay:10.37,2013-03-17 23:40:00,
2013-03-17 19:45:00,69.7,61.0,30.04,SW,230,4.1,5.8,74,0.00,CLR,OVC,0.00,WeatherDisplay:10.37,2013-03-17 23:45:00,
2013-03-17 19:50:00,69.5,61.2,30.05,South,189,3.0,4.6,75,0.00,CLR,OVC,0.00,WeatherDisplay:10.37,2013-03-17 23:50:00,
2013-03-17 19:55:00,69.4,61.1,30.05,SSE,157,4.8,8.1,75,0.00,CLR,OVC,0.00,WeatherDisplay:10.37,2013-03-17 23:55:00,
2013-03-17 20:00:00,69.5,61.2,30.05,South,169,3.7,4.6,75,0.00,CLR,OVC,0.00,WeatherDisplay:10.37,2013-03-18 00:00:00,
2013-03-17 20:05:00,69.5,61.2,30.05,SSE,155,4.1,5.8,75,0.00,CLR,OVC,0.00,WeatherDisplay:10.37,2013-03-18 00:05:00,
2013-03-17 20:10:00,69.4,61.5,30.04,South,185,3.2,5.8,76,0.00,CLR,OVC,0.00,WeatherDisplay:10.37,2013-03-18 00:10:00,
2013-03-17 20:15:00,69.0,61.1,30.05,SSE,168,4.8,7.2,76,0.00,CLR,OVC,0.00,WeatherDisplay:10.37,2013-03-18 00:15:00,
2013-03-17 20:20:00,69.0,61.1,30.05,South,188,3.5,5.8,76,0.00,CLR,OVC,0.00,WeatherDisplay:10.37,2013-03-18 00:20:00,
2013-03-17 20:25:00,69.0,61.1,30.05,SSE,165,4.0,5.8,76,0.00,CLR,OVC,0.00,WeatherDisplay:10.37,2013-03-18 00:25:00,
2013-03-17 20:30:00,69.0,61.1,30.05,South,181,4.5,5.8,76,0.00,CLR,OVC,0.00,WeatherDisplay:10.37,2013-03-18 00:30:00,
2013-03-17 20:35:00,68.9,61.0,30.05,SSE,167,2.9,5.8,76,0.00,CLR,OVC,0.00,WeatherDisplay:10.37,2013-03-18 00:35:00,
2013-03-17 20:40:00,68.8,60.6,30.05,SSW,195,5.3,8.1,75,0.00,CLR,OVC,0.00,WeatherDisplay:10.37,2013-03-18 00:40:00,
2013-03-17 20:45:00,68.8,60.6,30.05,SSE,165,4.3,5.8,75,0.00,CLR,OVC,0.00,WeatherDisplay:10.37,2013-03-18 00:45:00,
2013-03-17 20:50:00,68.7,60.5,30.05,SSW,202,5.0,6.9,75,0.00,CLR,OVC,0.00,WeatherDisplay:10.37,2013-03-18 00:50:00,
2013-03-17 20:55:00,68.6,60.4,30.06,South,189,4.1,8.1,75,0.00,CLR,OVC,0.00,WeatherDisplay:10.37,2013-03-18 00:55:00,
2013-03-17 21:00:00,68.8,60.6,30.06,SSW,193,3.7,4.6,75,0.00,CLR,OVC,0.00,WeatherDisplay:10.37,2013-03-18 01:00:00,
2013-03-17 21:05:00,68.8,60.6,30.06,South,189,4.7,6.9,75,0.00,CLR,OVC,0.00,WeatherDisplay:10.37,2013-03-18 01:05:00,
2013-03-17 21:10:00,68.7,60.5,30.06,SSW,205,4.5,6.9,75,0.00,CLR,OVC,0.00,WeatherDisplay:10.37,2013-03-18 01:10:00,
2013-03-17 21:15:00,68.7,60.5,30.06,South,175,4.0,8.1,75,0.00,CLR,OVC,0.00,WeatherDisplay:10.37,2013-03-18 01:15:00,
2013-03-17 21:20:00,68.7,60.5,30.06,South,184,3.4,4.6,75,0.00,CLR,OVC,0.00,WeatherDisplay:10.37,2013-03-18 01:20:00,
2013-03-17 21:25:00,68.7,60.8,30.05,South,176,5.1,6.9,76,0.00,CLR,OVC,0.00,WeatherDisplay:10.37,2013-03-18 01:25:00,
2013-03-17 21:30:00,68.7,60.8,30.06,SSE,164,3.8,4.6,76,0.00,CLR,OVC,0.00,WeatherDisplay:10.37,2013-03-18 01:30:00,
2013-03-17 21:35:00,68.5,60.6,30.06,SSW,206,3.5,6.9,76,0.00,CLR,OVC,0.00,WeatherDisplay:10.37,2013-03-18 01:35:00,
2013-03-17 21:40:00,68.5,60.6,30.06,SSE,167,6.0,8.1,76,0.00,CLR,OVC,0.00,WeatherDisplay:10.37,2013-03-18 01:40:00,
2013-03-17 21:45:00,68.5,60.6,30.06,SSW,200,5.1,5.8,76,0.00,CLR,OVC,0.00,WeatherDisplay:10.37,2013-03-18 01:45:00,
2013-03-17 21:50:00,68.5,60.6,30.06,SSW,196,4.4,6.9,76,0.00,CLR,OVC,0.00,WeatherDisplay:10.37,2013-03-18 01:50:00,
2013-03-17 21:55:00,68.5,61.0,30.06,SSE,147,5.9,8.1,77,0.00,CLR,OVC,0.00,WeatherDisplay:10.37,2013-03-18 01:55:00,
2013-03-17 22:00:00,68.5,61.0,30.06,SSE,161,4.8,8.1,77,0.00,CLR,OVC,0.00,WeatherDisplay:10.37,2013-03-18 02:00:00,
2013-03-17 22:05:00,68.4,60.9,30.06,South,175,4.5,6.9,77,0.00,CLR,OVC,0.00,WeatherDisplay:10.37,2013-03-18 02:05:00,
2013-03-17 22:10:00,68.4,60.9,30.06,SSE,161,5.3,6.9,77,0.00,CLR,OVC,0.00,WeatherDisplay:10.37,2013-03-18 02:10:00,
2013-03-17 22:15:00,68.4,61.3,30.06,SE,136,6.7,8.1,78,0.00,CLR,OVC,0.00,WeatherDisplay:10.37,2013-03-18 02:15:00,
2013-03-17 22:20:00,68.4,60.9,30.06,South,172,4.9,6.9,77,0.00,CLR,OVC,0.00,WeatherDisplay:10.37,2013-03-18 02:20:00,
2013-03-17 22:25:00,68.4,60.9,30.06,SSE,168,5.3,6.9,77,0.00,CLR,OVC,0.00,WeatherDisplay:10.37,2013-03-18 02:25:00,
2013-03-17 22:30:00,68.4,60.9,30.07,South,191,4.3,4.6,77,0.00,CLR,OVC,0.00,WeatherDisplay:10.37,2013-03-18 02:30:00,
2013-03-17 22:35:00,68.4,60.9,30.07,SSE,148,3.0,3.5,77,0.00,CLR,OVC,0.00,WeatherDisplay:10.37,2013-03-18 02:35:00,
2013-03-17 22:40:00,68.4,60.9,30.07,SSE,165,1.6,1.6,77,0.00,CLR,OVC,0.00,WeatherDisplay:10.37,2013-03-18 02:40:00,
2013-03-17 22:45:00,68.3,60.8,30.07,South,169,2.2,2.3,77,0.00,CLR,OVC,0.00,WeatherDisplay:10.37,2013-03-18 02:45:00,
2013-03-17 22:50:00,68.3,60.8,30.07,SSE,165,2.9,4.6,77,0.00,CLR,OVC,0.00,WeatherDisplay:10.37,2013-03-18 02:50:00,
2013-03-17 22:55:00,68.4,60.9,30.07,SSE,148,0.8,2.3,77,0.00,CLR,OVC,0.00,WeatherDisplay:10.37,2013-03-18 02:55:00,
2013-03-17 23:00:00,68.4,60.9,30.07,SE,145,2.0,2.3,77,0.00,CLR,OVC,0.00,WeatherDisplay:10.37,2013-03-18 03:00:00,
2013-03-17 23:05:00,68.3,60.8,30.07,SE,137,2.4,3.5,77,0.00,CLR,OVC,0.00,WeatherDisplay:10.37,2013-03-18 03:05:00,
2013-03-17 23:10:00,68.3,60.8,30.06,SE,143,1.7,3.5,77,0.00,CLR,OVC,0.00,WeatherDisplay:10.37,2013-03-18 03:10:00,
2013-03-17 23:15:00,68.3,60.8,30.06,SSE,151,3.7,4.6,77,0.00,CLR,OVC,0.00,WeatherDisplay:10.37,2013-03-18 03:15:00,
2013-03-17 23:20:00,68.1,61.0,30.06,SSE,150,3.8,5.8,78,0.00,CLR,OVC,0.00,WeatherDisplay:10.37,2013-03-18 03:20:00,
2013-03-17 23:25:00,68.1,61.0,30.06,SSE,151,4.1,4.6,78,0.00,CLR,OVC,0.00,WeatherDisplay:10.37,2013-03-18 03:25:00,
2013-03-17 23:30:00,67.8,61.0,30.05,SE,140,5.2,6.9,79,0.00,CLR,OVC,0.00,WeatherDisplay:10.37,2013-03-18 03:30:00,
2013-03-17 23:35:00,67.8,61.0,30.05,SSE,151,4.3,5.0,79,0.00,CLR,OVC,0.00,WeatherDisplay:10.37,2013-03-18 03:35:00,
2013-03-17 23:40:00,67.7,61.0,30.05,SSE,157,4.7,6.9,79,0.00,CLR,OVC,0.00,WeatherDisplay:10.37,2013-03-18 03:40:00,
2013-03-17 23:45:00,67.7,61.0,30.05,SSE,158,6.0,8.1,79,0.00,CLR,OVC,0.00,WeatherDisplay:10.37,2013-03-18 03:45:00,
2013-03-17 23:50:00,67.5,60.8,30.05,SSE,154,6.0,8.1,79,0.00,CLR,OVC,0.00,WeatherDisplay:10.37,2013-03-18 03:50:00,
2013-03-17 23:55:00,67.6,60.9,30.05,SSE,152,4.9,8.1,79,0.00,CLR,OVC,0.00,WeatherDisplay:10.37,2013-03-18 03:55:00,